Regional Weather Roundup
Issued by NWS Wakefield, VA

Home | Current Version | Previous Version | Text Only | Print | Product List | Glossary Off
Versions: 1 2 3 4 5 6 7 8 9 10 11 12 13 14 15 16 17 18 19 20 21 22 23 24 25 26 27

000
ASUS41 KAKQ 020415
RWRAKQ

REGIONAL WEATHER ROUNDUP
NATIONAL WEATHER SERVICE WAKEFIELD VA
1100 PM EST THU DEC 01 2016

Note: "fair" indicates few or no clouds below 12,000 feet with no
significant weather and/or obstructions to visibility. * = Denotes
station may not report precipitation (e.g., rain,snow,etc.),
thunder or fog.

VAZ042-051-052>054-056-020500-
NORTHERN VIRGINIA

CITY           SKY/WX    TMP DP  RH WIND       PRES   REMARKS
WASH NATIONAL  CLOUDY    48  30  49 VRB3      29.97R
DULLES         CLOUDY    45  28  51 W9        29.96R
FORT BELVOIR   CLOUDY    44  30  57 CALM      29.97R
QUANTICO       CLEAR     41  28  60 CALM      29.98R
FREDERICKSBRG* CLEAR     37  34  89 CALM      29.97R
STAFFORD*      CLEAR     33  32  99 W3        30.01R
WARRENTON      CLOUDY    43  27  53 CALM      29.96R
CULPEPER*      CLOUDY    40  32  74 CALM      29.98S
MANASSAS*      CLOUDY    39  34  81 CALM      29.97R
LEESBURG*      CLOUDY    46  32  57 NW15G22   29.96S
WINCHESTER     CLOUDY    41  28  60 W15       29.96R
FRONT ROYAL*   CLOUDY    43  28  56 NW12G18   29.95S
LURAY*         MOCLDY    43  30  61 W5        29.96S
$$

VAZ048-049-060>072-079>083-020500-
CENTRAL AND SOUTH CENTRAL VIRGINIA

CITY           SKY/WX    TMP DP  RH WIND       PRES   REMARKS
RICHMOND       CLEAR     44  31  60 NW6       29.98R
CHESTERFIELD*  FAIR      37  19  48 CALM      30.00R
PETERSBURG*    CLEAR     43  32  65 NW5       29.98S
HANOVER        CLEAR     38  33  82 CALM      30.00R
TAPPAHANNOCK*  CLEAR     39  30  71 CALM      29.99R
QUINTON*       FAIR      41  34  77 CALM      29.97R
CHARLOTTSVILLE CLEAR     42  28  57 W6        29.98R
GORDONSVILLE*  FAIR      44  29  57 W3        29.97R
ORANGE*          N/A     37  32  81 S5        29.99R
LOUISA*        CLEAR     45  32  61 W7        29.97R
BUMPASS*       FAIR      37  32  80 CALM      29.99R
FARMVILLE*     CLEAR     43  32  64 NW3       29.99R
CREWE*         FAIR      42  32  66 NW7       29.97F
FORT PICKETT*  FAIR      41  28  58 NW10      29.98R
CHASE CITY*    FAIR      43  28  55 NW6       30.00R
CLARKSVILLE*   FAIR      45  32  61 NW6G17    29.99R
SOUTH HILL*    CLEAR     44  32  63 NW3       30.04R
LAWRENCEVILLE* FAIR      38  32  79 CALM      29.98R
EMPORIA*       CLEAR     43  34  70 CALM      29.99R
$$

VAZ088>098-020500-
SOUTHEAST VIRGINIA

CITY           SKY/WX    TMP DP  RH WIND       PRES   REMARKS
NORFOLK        CLEAR     51  41  68 N15G25    29.95R
VIRGINIA BEACH CLEAR     50  39  66 N10       29.93R
NORFOLK NAVAL  CLEAR     51  38  60 N13G24    29.97R
WEST POINT*    CLEAR     36  34  91 CALM      30.00R
SALUDA*        FAIR      47  33  60 NW6       29.97R
NEWPORT NEWS   CLEAR     47  35  63 N6        29.96R
LANGLEY AFB    CLEAR     48  39  69 N15       29.95R
FORT EUSTIS    CLEAR     48  34  57 VRB7      29.94R
WILLIAMSBURG*  CLEAR     46  37  71 N3        29.98R
HR EXEC AP*    FAIR      43  36  75 NW3       29.94R
FRANKLIN*      CLEAR     46  34  63 NW5       29.97R
US460-WAKEFLD  CLEAR     42  36  79 CALM      29.97R
$$

VAZ020-022-025-037-045-020500-
WEST CENTRAL AND SOUTHWEST VIRGINIA

CITY           SKY/WX    TMP DP  RH WIND       PRES   REMARKS
STAUNTON*      CLOUDY    38  31  75 CALM      29.99R
WAYNESBORO*    CLOUDY    38  27  62 SW3       29.97R
HOT SPRINGS VA NOT AVBL
LYNCHBURG      CLEAR     35  28  75 NW5       30.00S
DANVILLE       CLEAR     42  31  64 N7        30.01R
SOUTH BOSTON*  FAIR      44  28  53 NW7       30.01R
MARTINSVILLE   CLEAR     33  29  88 NW3       30.03S
ROANOKE        PTCLDY    44  26  49 NW17G28   30.02S
BLACKSBURG     CLOUDY    38  29  70 W5        30.03R
DUBLIN*        CLEAR     37  29  73 W7        30.02R
MARION*        CLEAR     34  30  86 W7        30.03R
HILLSVILLE*    CLEAR     35  30  80 W8        29.99R
RICHLANDS*     FAIR      34  28  79 W5        30.01S
WISE*          PTCLDY    34  28  80 W6        30.04R
ABINGDON*      CLEAR     34  31  89 CALM      30.04S
$$

MDZ021>025-VAZ099-100-020500-
SOUTHERN MARYLAND AND THE DELMARVA PENINSULA

CITY           SKY/WX    TMP DP  RH WIND       PRES   REMARKS
PATUXENT RIVER PTCLDY    45  31  58 NW12      29.95S
BAY BRIDGE APT MOCLDY    46  32  57 NW12G17   29.96R
LEONARDTOWN    CLEAR     43  30  61 CALM      29.97S
DOVER          CLEAR     44  29  56 NW13      29.92R
GEORGETOWN     CLEAR     43  32  65 W3        29.95R
EASTON         CLEAR     46  30  54 N12       29.98
CAMBRIDGE      CLEAR     45  32  61 NW9       29.94S
SALISBURY      PTCLDY    43  32  65 NW5       29.94R
OCEAN CITY     CLEAR     42  32  67 NW7       29.94R
WALLOPS ISLAND CLEAR     43  33  68 NW8       29.95R
ACCOMACK*      CLEAR     47  33  57 N8        29.96R
$$

NCZ012>017-030>032-020500-
NORTH CENTRAL AND EASTERN NORTH CAROLINA

CITY           SKY/WX    TMP DP  RH WIND       PRES   REMARKS
ROANOKE RAPIDS FAIR      45  34  65 NW3       29.98R
RALEIGH        CLEAR     48  32  53 N3        29.99R
ELIZABETH CITY PTCLDY    46  35  65 NW10      29.93S
AHOSKIE*       CLEAR     45  34  66 CALM      29.98R
EDENTON*       PTCLDY    45  39  78 CALM      29.95S
CURRITUCK*     PTCLDY    51  35  52 NW3       29.94S
KILL DEVIL HLS PTCLDY    54  40  59 CALM      29.91S
MANTEO         PTCLDY    54  38  56 N5        29.94R
CAPE HATTERAS  CLEAR     56  41  57 VRB5      29.94R
TARBORO*       NOT AVBL
GOLDSBORO      CLEAR     47  44  90 CALM      29.95R
WASHINGTON     CLEAR     44  40  84 CALM      29.96R
GREENVILLE     CLEAR     46  39  76 CALM      29.98R
NEW BERN       CLEAR     44  41  89 S3        29.97R
WILMINGTON     CLEAR     49  45  86 SW6       29.98R
$$

VAZ048-020500-
ELSEWHERE

CITY           SKY/WX    TMP DP  RH WIND       PRES   REMARKS
HARRISBURG PA  CLOUDY    44  29  55 W9        29.90S
BALTIMORE      CLOUDY    45  31  58 W9        29.94R
ANNAPOLIS      CLOUDY    48  30  49 NW6       29.95R
ANDREWS AFB    CLOUDY    46  29  52 W8        29.95R
PHILADELPHIA   NOT AVBL
HENDERSON NC   CLEAR     42  29  61 NW7       29.99R
GREENSBORO     CLEAR     42  31  64 CALM      29.99R
ROCKY MOUNT    CLEAR     46  36  68 NW5       29.97R
$$

VAZ100-020500-
MARINE

STATION/POSITION TIME  TEMP    WIND        PRES    WAVE   SWELL
                       AIR SEA DIR/SP/G            HT/PER HT/PER
                 (UTC) (F)     (DEG/KT/KT) (MB)    (FT/S) (FT/S)
BRANDYWINE LGT   0348   47     330/ 15/ 20   N/A
CAPE MAY NJ      0342   47 51  320/  9/ 18 1012.6R
LEWES DE         0348   47 52  310/ 18/ 21 1013.5R
OCEAN-CITY-INLET 0348          320/  6/  8   N/A
WACHAPREAGUE VA  0348   47 56  340/  4/  7 1014.4R
THOMAS POINT MD  0400   47 51  320/ 10/ 11   N/A
GOOSES REEF MD   0350   48      10/ 12/ 14 1014.9R
COVE POINT MD    0348   47     360/ 16/ 20 1014.7R
SOLOMONS ISLAND  0348          320/  4/  5   N/A
BISHOPS HEAD MD  0348   45 51  330/  6/ 10 1014.5R
PINEY POINT MD   0348          350/  9/ 10   N/A
POTOMAC MD       0350   48     330/  8/ 10 1013.8R
CAMBRIDGE MD     0348   47 49  330/ 11/ 15 1013.3R
LEWISETTA VA     0348   48 53  360/ 10/ 13 1014.5R
RAPPAHANNOCK LGT 0348          340/ 17/ 19 1015.0R
STINGRAY PT      0350   49     350/ 10/ 12 1015.0R
YORK RVR RNG VA  0348   50     360/ 18/ 20 1013.9R
YORKTOWN VA      0348   49 54  330/  8/  9 1014.3R
JAMESTOWN VA     0350   48     340/  4/  6   N/A
DOMINION TERM VA 0348   51      50/  2/  5 1014.3R
KIPTOPEKE VA     0348           30/  5/  7   N/A
CHES BAY BRIDGE  0348   52 55   20/ 24/ 26 1013.5R
CAPE HENRY VA    0348   51      10/ 23/ 27   N/A
WILLOUBY STN VA  0348   51     360/ 16/ 19 1014.9R
S CRANEY ISL VA  0348   53      20/ 14/ 17 1013.8R
CAPE HENRY BUOY  0342      57                N/A     2/ 9
1ST LANDING BUOY 0350   52                 1013.5R
CAPE CHARLES BUO 0356      57                N/A     2/ 8
OFFSHORE WE BUOY 0351      57                N/A     3/ 8
64NM E OF VA BCH 0350   58 59  320/ 10/ 12 1012.6R   4/ 8   3/ 8
DUCK PIER NC     0348   56 58  320/ 12/ 15 1012.9R
44100 DUCK FRF   0335      58                N/A     3/ 8
OREGON INLET NC  0342   54 60  320/  4/  5 1013.7R
HATTERAS NC      0348   57 65  330/ 10/ 12 1013.6R
DIAMOND SHLS NC  0350   62 75  350/ 17/ 21 1013.4R   4/ 8   3/ 8
CAPE LOOKOUT NC  0400   59     330/ 10/ 11 1013.9R
$$




USA.gov is the U.S. government's official web portal to all federal, state and local government web resources and services.